[[{"header":{"parameterUnit":"m.s-1","parameterCategory":1,"la1":30.2991,"la2":30.254,"lo1":-89.0895,"lo2":-89.0444,"dy":0.0017,"dx":0.0017,"nx":28,"ny":28,"refTime":"2025-05-18T03:00:00:Z","depth":0,"parameterNumber":2,"parameterNumberName":"U-component_of_WINDS"},"data":[0,0,0,0,0,0,0,0,0,0,0,0,0,0,0,0,0,0,0,0,0,0,0,0,0,0,0,0,0,0,0,0,0,0,0,0,0,0,0,0,0,0,0,0,0,0,0,0,0,0,0,0,0,0,0,0,0,0,1.5589,1.559,0,1.5652,1.5653,1.5654,1.5634,1.5633,1.5631,1.563,1.5696,1.5699,1.5702,0,0,0,0,0,0,0,0,0,0,0,0,0,1.5452,1.5455,1.5589,1.559,1.5591,1.5652,1.5653,1.5654,1.5634,1.5633,1.5631,1.5629,1.5695,1.5698,1.5702,0,0,0,0,0,0,0,0,0,0,0,0,0,1.5513,1.5456,1.5589,1.5588,1.5589,1.5652,1.5653,1.5654,1.5635,1.5633,1.5631,1.5629,1.5694,1.5698,1.5702,1.577,0,0,1.5716,1.5718,0,0,0,0,0,0,0,0,1.551,1.5518,1.5588,1.5588,1.5589,1.5633,1.5629,1.5693,1.5635,1.5617,1.563,1.5628,1.5677,1.5682,1.5699,1.5773,1.5776,1.5717,1.5719,1.5721,1.5723,0,0,0,0,0,0,0,1.5506,1.5515,1.5614,1.5589,1.559,1.5585,1.5591,1.5641,1.5658,1.5619,1.5617,1.5625,1.5677,1.5694,1.57,1.5777,1.5717,1.572,1.5723,1.5725,1.591,1.5912,0,0,0,0,0,0,1.5501,1.5512,1.5612,1.5616,1.5544,1.5589,1.5596,1.5621,1.5657,1.566,1.5627,1.5624,1.5688,1.5695,1.5702,1.5783,1.5721,1.5725,1.5728,1.5908,1.591,1.5913,0,0,0,0,0,0,1.5498,1.551,1.561,1.5564,1.5576,1.5594,1.5622,1.5623,1.5641,1.5663,1.5666,1.5642,1.5686,1.5696,1.5753,1.5785,1.5727,1.5732,1.5905,1.5909,1.5912,1.5946,0,0,0,0,0,0,1.5494,1.5509,1.5535,1.5564,1.5579,1.5659,1.5624,1.5626,1.5649,1.5646,1.5678,1.5681,1.5686,1.5747,1.5758,1.5791,1.5735,1.5902,1.5907,1.5911,1.5943,1.5951,1.5957,0,0,0,0,0,1.5489,1.5543,1.5536,1.5548,1.5611,1.5661,1.5669,1.5673,1.5651,1.5677,1.5691,1.568,1.578,1.5753,1.5765,1.58,1.59,1.5905,1.591,1.5939,1.5949,1.5957,0,0,0,0,0,0,1.5517,1.5546,1.554,1.5604,1.563,1.5658,1.5691,1.5683,1.5716,1.5712,1.5716,1.5723,1.5782,1.5797,1.5765,1.5867,1.5837,1.5845,1.5855,1.5864,1.5872,1.5867,1.5739,0,0,0,0,0,1.553,1.5568,1.5592,1.5647,1.566,1.5673,1.5695,1.5696,1.5723,1.5734,1.5752,1.578,1.5817,1.5842,1.5877,1.5945,1.5951,1.5975,1.5982,1.5988,1.5994,1.603,1.6041,1.5929,1.5929,1.5929,0,0,1.5559,1.558,1.5604,1.5653,1.5673,1.5712,1.5683,1.5726,1.5755,1.5741,1.5796,1.581,1.5841,1.5903,1.5931,1.5917,1.6027,1.5994,1.5999,1.6002,1.6036,1.6047,1.6056,1.5933,1.5932,1.5931,0,0,1.5631,1.5651,1.5698,1.5718,1.5749,1.5757,1.5769,1.5797,1.5806,1.5861,1.5851,1.5886,1.5951,1.5972,1.5992,1.6071,1.6062,1.6083,1.6122,1.6157,1.6166,1.6173,1.6201,1.6211,1.609,1.609,1.609,0,1.5662,1.5721,1.5723,1.5767,1.5788,1.5777,1.5825,1.5845,1.5886,1.5901,1.5885,1.5965,1.5985,1.6051,1.6071,1.6087,1.61,1.6079,1.6164,1.6172,1.6179,1.6205,1.6216,1.6092,1.6092,1.6091,1.6091,0,1.5757,1.5798,1.5833,1.5872,1.5897,1.5943,1.5952,1.5978,1.5976,1.5986,1.6042,1.6065,1.6105,1.6121,1.612,1.6188,1.6178,1.6163,1.6133,1.6192,1.6217,1.6227,1.6095,1.6094,1.6094,1.6093,0,0,1.5848,1.5888,1.59,1.5917,1.595,1.5982,1.6027,1.6065,1.6087,1.6116,1.6153,1.6208,1.6193,1.6216,1.6217,1.6248,1.6308,1.6229,1.6229,1.6242,1.6383,1.6393,1.6405,1.6302,1.6304,1.6306,1.638,0,1.5922,1.6,1.6003,1.6075,1.6112,1.6101,1.614,1.6165,1.6175,1.6208,1.622,1.6258,1.6237,1.6251,1.6281,1.6294,1.6336,1.6289,1.6337,1.6338,1.6328,1.6418,1.643,1.6499,1.639,1.6391,1.6393,0,1.6018,1.6049,1.6124,1.6151,1.6166,1.6201,1.6236,1.6268,1.6296,1.6301,1.6326,1.6322,1.6368,1.6337,1.64,1.6368,1.6387,1.6397,1.64,1.6404,1.6369,1.6424,1.6521,1.6531,1.6408,1.6407,1.6406,0,1.6076,1.6136,1.6189,1.6204,1.6237,1.6261,1.6276,1.6301,1.6324,1.6355,1.6369,1.6406,1.6425,1.6453,1.646,1.6437,1.6522,1.6492,1.6528,1.6527,1.6546,1.6544,1.6647,1.656,1.656,1.6559,1.6559,0,1.6157,1.6203,1.6215,1.6247,1.6298,1.6301,1.6352,1.6365,1.6387,1.6422,1.6416,1.6448,1.6455,1.6489,1.6494,1.6545,1.6554,1.656,1.6561,1.656,1.6559,1.6572,1.6567,1.6562,1.6562,1.6561,1.6561,0,1.623,1.624,1.6296,1.6322,1.633,1.6366,1.6388,1.6419,1.6429,1.6472,1.6483,1.6498,1.6537,1.6547,1.6594,1.6598,1.6658,1.6654,1.6648,1.6648,1.6682,1.6679,1.6796,1.6811,1.6716,1.6716,1.6717,0,1.6281,1.6316,1.6346,1.6368,1.6384,1.642,1.6443,1.6448,1.6472,1.6505,1.6532,1.657,1.6601,1.6665,1.668,1.6716,1.6713,1.6752,1.6719,1.6717,1.6713,1.671,1.6713,1.6758,1.6759,1.676,1.6761,0,1.637,1.6373,1.6406,1.644,1.6467,1.6495,1.6521,1.654,1.6549,1.6576,1.6616,1.664,1.6688,1.6726,1.6762,1.6777,1.6771,1.6771,1.6781,1.678,1.6775,1.6777,1.6664,1.6768,1.6767,1.6767,1.6766,1.6766,1.6433,1.6463,1.6488,1.6525,1.6545,1.657,1.6599,1.6613,1.6646,1.6685,1.6686,1.6729,1.6755,1.6803,1.682,1.6854,1.6842,1.6857,1.6861,1.6864,1.6867,1.677,1.6861,1.6861,1.6861,1.686,1.686,0,1.6521,1.6536,1.657,1.6606,1.6635,1.6626,1.6654,1.6679,1.6717,1.6742,1.6772,1.6818,1.6855,1.6873,1.691,1.6933,1.6931,1.6943,1.6941,1.6944,1.6876,1.6863,1.6944,1.6944,1.6944,1.6944,1.6944,1.6944,1.657,1.662,1.6626,1.6686,1.6701,1.6743,1.676,1.6783,1.6802,1.6853,1.6884,1.6895,1.6917,1.6955,1.6988,1.6993,1.7006,1.7019,1.7022,1.6958,1.6949,1.6941,1.6929,1.7023,1.7023,1.7088,1.7088,1.7089]},{"header":{"parameterUnit":"m.s-1","parameterCategory":1,"la1":30.2991,"la2":30.254,"lo1":-89.0895,"lo2":-89.0444,"dy":0.0017,"dx":0.0017,"nx":28,"ny":28,"refTime":"2025-05-18T03:00:00:Z","depth":0,"parameterNumber":3,"parameterNumberName":"V-component_of_WINDS"},"data":[0,0,0,0,0,0,0,0,0,0,0,0,0,0,0,0,0,0,0,0,0,0,0,0,0,0,0,0,0,0,0,0,0,0,0,0,0,0,0,0,0,0,0,0,0,0,0,0,0,0,0,0,0,0,0,0,0,0,2.164,2.164,0,2.1702,2.1702,2.1703,2.1694,2.1693,2.1692,2.1691,2.1753,2.1755,2.1758,0,0,0,0,0,0,0,0,0,0,0,0,0,2.1512,2.1515,2.164,2.1641,2.1641,2.1702,2.1702,2.1703,2.1695,2.1693,2.1692,2.1691,2.1752,2.1755,2.1758,0,0,0,0,0,0,0,0,0,0,0,0,0,2.157,2.1516,2.164,2.1644,2.1645,2.1701,2.1702,2.1703,2.1695,2.1693,2.1692,2.169,2.1751,2.1755,2.1759,2.1813,0,0,2.177,2.1772,0,0,0,0,0,0,0,0,2.1567,2.1575,2.1643,2.1644,2.1645,2.1689,2.168,2.174,2.1695,2.1676,2.1691,2.169,2.1733,2.1738,2.1753,2.1816,2.1819,2.1771,2.1773,2.1775,2.1776,0,0,0,0,0,0,0,2.1563,2.1572,2.1664,2.1644,2.1645,2.1643,2.1649,2.1691,2.1712,2.1678,2.1677,2.1685,2.1733,2.1749,2.1754,2.182,2.1771,2.1774,2.1777,2.1778,2.1931,2.1933,0,0,0,0,0,0,2.1558,2.1569,2.1662,2.1666,2.1602,2.1646,2.1654,2.1676,2.1712,2.1716,2.1686,2.1684,2.1743,2.175,2.1756,2.1823,2.1775,2.1778,2.1781,2.193,2.1932,2.1934,0,0,0,0,0,0,2.1555,2.1566,2.166,2.1617,2.1629,2.165,2.1676,2.1678,2.1695,2.1718,2.1721,2.1699,2.1742,2.1751,2.1799,2.1825,2.178,2.1784,2.1928,2.193,2.1933,2.1958,0,0,0,0,0,0,2.1552,2.1565,2.1587,2.1618,2.1631,2.1703,2.1677,2.1681,2.1702,2.17,2.1731,2.1735,2.1742,2.1794,2.1803,2.183,2.1787,2.1925,2.1929,2.1932,2.1955,2.1961,2.1966,0,0,0,0,0,2.1547,2.1591,2.1588,2.1599,2.1659,2.1704,2.1712,2.172,2.1704,2.1725,2.174,2.1734,2.1821,2.1799,2.1809,2.1838,2.1924,2.1928,2.1932,2.1952,2.1959,2.1966,0,0,0,0,0,0,2.1562,2.1595,2.1592,2.1648,2.1673,2.1703,2.173,2.1727,2.1757,2.1754,2.1762,2.1769,2.1818,2.1833,2.1808,2.1893,2.187,2.1876,2.1882,2.1889,2.1895,2.1891,2.179,0,0,0,0,0,2.1572,2.1606,2.1633,2.1679,2.1692,2.1709,2.1729,2.1733,2.1759,2.177,2.1788,2.1814,2.1847,2.1869,2.19,2.1956,2.1963,2.1981,2.1986,2.1991,2.1997,2.2028,2.2036,2.1947,2.1946,2.1946,0,0,2.1592,2.1614,2.1636,2.1683,2.1703,2.1738,2.1718,2.1756,2.1782,2.1775,2.1823,2.1837,2.1866,2.1919,2.1943,2.1932,2.2023,2.1996,2.1999,2.2003,2.2032,2.2041,2.2048,2.1949,2.1949,2.1948,0,0,2.1648,2.1668,2.1709,2.173,2.1761,2.1772,2.1781,2.1811,2.1821,2.1869,2.1864,2.1895,2.1952,2.1973,2.1991,2.2054,2.2049,2.2064,2.2094,2.2124,2.2131,2.2138,2.2161,2.2169,2.2069,2.2069,2.2069,0,2.1669,2.1722,2.173,2.1769,2.179,2.1786,2.1827,2.1847,2.1886,2.1901,2.1888,2.196,2.1979,2.2036,2.2052,2.2066,2.2078,2.2061,2.213,2.2136,2.2142,2.2164,2.2173,2.2071,2.2071,2.2071,2.207,0,2.1747,2.1784,2.1814,2.1853,2.1877,2.1917,2.193,2.1953,2.1955,2.1967,2.2016,2.2038,2.2075,2.2088,2.209,2.2146,2.2139,2.2128,2.2106,2.2152,2.2173,2.2182,2.2073,2.2073,2.2072,2.2072,0,0,2.1815,2.1858,2.1868,2.1886,2.192,2.1949,2.1988,2.2025,2.2045,2.2072,2.2105,2.2153,2.2143,2.2164,2.2168,2.2194,2.2243,2.218,2.2181,2.2191,2.2307,2.2316,2.2326,2.224,2.2241,2.2243,2.2305,0,2.1874,2.1945,2.1953,2.2016,2.205,2.2046,2.2081,2.2105,2.2117,2.2148,2.216,2.2195,2.2179,2.2191,2.2217,2.2232,2.2267,2.2227,2.2271,2.2272,2.2265,2.2337,2.2346,2.2404,2.2313,2.2315,2.2316,0,2.1953,2.1983,2.205,2.2079,2.2094,2.2125,2.2159,2.2188,2.2216,2.2222,2.2245,2.2246,2.2286,2.2261,2.2317,2.229,2.2308,2.2318,2.232,2.2325,2.2298,2.2345,2.2423,2.2432,2.2329,2.2328,2.2327,0,2.1996,2.2054,2.2101,2.2116,2.2152,2.2174,2.2189,2.2215,2.2236,2.2266,2.228,2.2313,2.2331,2.2357,2.2366,2.2347,2.2421,2.2397,2.2428,2.2428,2.2445,2.2444,2.2528,2.2455,2.2455,2.2455,2.2454,0,2.2062,2.2103,2.2121,2.215,2.2196,2.2204,2.2249,2.2264,2.2287,2.2318,2.2317,2.2346,2.2356,2.2387,2.2394,2.244,2.2447,2.2454,2.2456,2.2455,2.2454,2.2468,2.2464,2.2457,2.2456,2.2456,2.2456,0,2.2119,2.2132,2.2184,2.2213,2.2222,2.2254,2.2279,2.2307,2.2318,2.2359,2.2368,2.2386,2.2423,2.2434,2.2478,2.2483,2.2536,2.2533,2.2527,2.2528,2.2558,2.2556,2.2655,2.2668,2.2586,2.2586,2.2587,0,2.2161,2.2192,2.2225,2.2247,2.2264,2.2298,2.232,2.2329,2.2352,2.2385,2.2409,2.2446,2.2476,2.2534,2.255,2.2584,2.2583,2.2615,2.2588,2.2586,2.2584,2.2583,2.2586,2.2621,2.2621,2.2622,2.2623,0,2.2234,2.2239,2.2271,2.2306,2.2333,2.236,2.2387,2.2404,2.2417,2.2443,2.2481,2.2504,2.2549,2.2585,2.2619,2.2634,2.2631,2.2631,2.264,2.264,2.2636,2.264,2.2542,2.2629,2.2628,2.2628,2.2628,2.2627,2.2285,2.2313,2.2341,2.2377,2.2398,2.2423,2.2451,2.2466,2.2498,2.2536,2.2539,2.258,2.2606,2.2652,2.2669,2.2701,2.2691,2.2704,2.2708,2.2711,2.2714,2.263,2.2707,2.2706,2.2706,2.2706,2.2706,0,2.2359,2.2376,2.2409,2.2447,2.2475,2.247,2.2499,2.2523,2.2559,2.2584,2.2614,2.2657,2.2692,2.2711,2.2746,2.2768,2.2767,2.2777,2.2776,2.278,2.272,2.2709,2.2777,2.2777,2.2777,2.2777,2.2777,2.2777,2.24,2.2448,2.2456,2.2514,2.2532,2.2573,2.259,2.2613,2.2633,2.2682,2.2711,2.2724,2.2746,2.2783,2.2815,2.2819,2.2832,2.2843,2.2847,2.2791,2.2784,2.2777,2.2767,2.2846,2.2846,2.2904,2.2905,2.2905]}]]